Flag for Canada Weather past 2 weeks in Richmond, British Columbia, Canada

Now
72 °F

Cloudy.


Feels Like: 77 °F
Forecast: 60 / 66 °F
Wind: 5 mph from Southeast

Location: Vancouver International Airport

Current Time: Aug 27, 2015 at 10:17:57 PM

Latest Report: Aug 27, 2015 at 9:00 PM


Visibility: 20 mi

Pressure: 29.93 "Hg

Humidity: 47%

Dew point: 50 °F

Location of RichmondLocation

Historic Weather in Richmond — Graph

°F

Richmond temperature yesterday

Maximum temperature yesterday: 72 °F (at 2:00 PM)
Minimum temperature yesterday: 54 °F (at 5:00 AM)
Average temperature yesterday: 63 °F

Past Weeks' High & Low Weather Summary

 TemperatureHumidityPressure
High75 °F (Aug 13, 11:00 AM)94% (Aug 14, 3:00 AM)30.27 "Hg (Aug 14, 3:00 AM)
Low54 °F (Aug 23, 4:00 AM)41% (Aug 24, 5:00 PM)29.80 "Hg (Aug 19, 8:00 PM)
Average65 °F73%30.01 "Hg
* Reported Aug 12 8:00 PM — Aug 27 8:00 PM, Richmond, Weather by CustomWeather, © 2015

Note: Actual official high and low records may vary slightly from our data, if they occured in-between our weather recording intervals... More about our weather records

Advertising

Richmond weather history for previous 24 hours

 ConditionsComfort  
Time TempWeatherWind HumidityBarometerVisibility
8:00 PM
Thu, Aug 27
73 °FBroken clouds.6 mph41%29.93 "Hg20 mi
7:00 PM72 °FBroken clouds.3 mph65%29.93 "Hg20 mi
6:00 PM73 °FScattered clouds.7 mph57%29.95 "Hg20 mi
5:00 PM72 °FScattered clouds.7 mph65%29.98 "Hg20 mi
4:00 PM73 °FScattered clouds.6 mph61%30.00 "Hg20 mi
3:00 PM73 °FPartly sunny.6 mph61%30.02 "Hg20 mi
2:00 PM72 °FPartly sunny.9 mph65%30.04 "Hg20 mi
1:00 PM73 °FPartly sunny.10 mph61%30.05 "Hg20 mi
12:00 PM75 °FPartly sunny.8 mph44%30.06 "Hg20 mi
11:00 AM72 °FPartly sunny.10 mph50%30.07 "Hg20 mi
10:00 AM70 °FPartly sunny.6 mph57%30.07 "Hg20 mi
9:00 AM68 °FBroken clouds.9 mph60%30.06 "Hg20 mi
8:00 AM64 °FBroken clouds.7 mph68%30.06 "Hg20 mi
7:00 AM63 °FPassing clouds.5 mph73%30.05 "Hg15 mi
6:00 AM61 °FPassing clouds.6 mph77%30.03 "Hg20 mi
5:00 AM61 °FMostly cloudy.6 mph77%30.02 "Hg20 mi
4:00 AM61 °FMostly cloudy.8 mph77%30.01 "Hg20 mi
3:00 AM63 °FMostly cloudy.5 mph77%30.01 "Hg20 mi
2:00 AM61 °FOvercast.2 mph77%30.01 "Hg20 mi
1:00 AM63 °FOvercast.5 mph77%30.00 "Hg20 mi
12:00 AM61 °FMostly cloudy.3 mph72%29.99 "Hg20 mi
11:00 PM
Wed, Aug 26
63 °FOvercast.No wind68%29.98 "Hg20 mi
10:00 PM61 °FOvercast.2 mph72%29.98 "Hg20 mi
Weather by CustomWeather, © 2015

See weather overviewHow to use our weather pages